Date String (YYYY-MM-DD hh:mm:ss) UTC,Instrument flags,Ambient pressure (hPa),Sample flow (lpm),Bypass flow (lpm),Sample temperature (°C),Ambient temperature (°C),ASC tube jacket temperature (°C),LED temperature (°C),Box temperature (°C),Sample RH (%),Span deviation,Mass concentration (μg/m³),Mass concentration (μg/m³),Mass concentration (μg/m³)
DateTimeUTC,F1_M11,P_M11,Q1_M11,Q2_M11,T1_M11,T2_M11,T3_M11,T4_M11,T5_M11,U1_M11,ZSPAN_M11,X0_M11,X2_M11,X1_M11
2022-09-20 15:00:00,,0828.3,5.00,0.00,30.3,28.7,00.0,39.0,32.1,15.9,0000.0,0007.96,0002.64,0002.05
2022-09-20 15:01:00,,0828.3,5.00,0.00,30.3,28.8,00.0,39.0,32.1,16.2,0000.0,0007.77,0002.68,0002.07
2022-09-20 15:02:00,,0828.4,4.99,0.00,30.3,28.9,00.0,39.0,32.1,16.3,0000.0,0007.65,0002.73,0002.09
2022-09-20 15:03:00,,0828.4,5.00,0.00,30.3,29.0,00.0,39.0,32.1,16.5,0000.0,0008.14,0002.75,0002.11
2022-09-20 15:04:00,,0828.4,5.02,0.00,30.3,29.0,00.0,39.0,32.1,17.0,0000.0,0007.98,0002.77,0002.11
2022-09-20 15:05:00,,0828.5,4.99,0.00,30.4,29.1,00.0,39.0,32.2,16.8,0000.0,0009.05,0002.81,0002.12
2022-09-20 15:06:00,,0828.4,5.01,0.00,30.4,28.9,00.0,39.0,32.2,16.9,0000.0,0008.66,0002.80,0002.13
2022-09-20 15:07:00,,0828.3,5.00,0.00,30.4,27.6,00.0,39.0,32.2,16.2,0000.0,0008.46,0002.80,0002.15
2022-09-20 15:08:00,,0828.7,5.00,0.00,30.3,27.0,00.0,39.0,32.1,15.8,0000.0,0008.23,0002.84,0002.17
2022-09-20 15:09:00,,0828.3,5.00,0.00,30.3,27.2,00.0,38.9,32.0,15.9,0000.0,0008.12,0002.81,0002.17
2022-09-20 15:10:00,,0828.3,5.00,0.00,30.2,27.6,00.0,38.9,31.9,15.9,0000.0,0008.24,0002.86,0002.18
2022-09-20 15:11:00,,0828.4,5.00,0.00,30.2,27.9,00.0,38.9,31.9,15.8,0000.0,0008.42,0002.94,0002.20
2022-09-20 15:12:00,,0828.4,5.01,0.00,30.2,28.2,00.0,38.9,32.0,16.0,0000.0,0008.47,0002.90,0002.20
2022-09-20 15:13:00,,0828.4,4.98,0.00,30.2,28.4,00.0,38.9,32.0,16.4,0000.0,0008.84,0002.88,0002.21
2022-09-20 15:14:00,,0828.4,5.01,0.00,30.2,28.5,00.0,38.9,32.0,16.4,0000.0,0008.69,0002.92,0002.22
2022-09-20 15:15:00,,0828.5,4.98,0.00,30.2,28.7,00.0,38.9,32.0,15.1,0000.0,0008.59,0002.92,0002.22
2022-09-20 15:16:00,,0828.5,4.99,0.00,30.2,28.8,00.0,38.9,32.0,14.6,0000.0,0007.58,0002.87,0002.22
2022-09-20 15:17:00,,0828.6,5.01,0.00,30.2,28.9,00.0,38.9,32.1,15.0,0000.0,0007.44,0002.82,0002.21
2022-09-20 15:18:00,,0828.5,5.00,0.00,30.3,29.0,00.0,38.9,32.1,15.2,0000.0,0007.75,0002.81,0002.20
2022-09-20 15:19:00,,0828.5,5.00,0.00,30.3,29.1,00.0,38.9,32.1,14.8,0000.0,0008.21,0002.85,0002.21
2022-09-20 15:20:00,,0828.5,4.99,0.00,30.3,29.1,00.0,39.0,32.2,14.7,0000.0,0008.22,0002.85,0002.21
2022-09-20 15:21:00,,0828.5,5.01,0.00,30.3,29.1,00.0,39.0,32.2,14.8,0000.0,0008.03,0002.87,0002.21
2022-09-20 15:22:00,,0828.5,5.00,0.00,30.4,28.2,00.0,39.0,32.2,14.9,0000.0,0008.05,0002.86,0002.21
2022-09-20 15:23:00,,0828.5,5.00,0.00,30.3,27.1,00.0,38.9,32.1,15.0,0000.0,0007.78,0002.96,0002.21
2022-09-20 15:24:00,,0828.5,5.00,0.00,30.3,27.1,00.0,38.9,32.1,15.0,0000.0,0007.22,0003.01,0002.20
2022-09-20 15:25:00,,0828.4,5.01,0.00,30.2,27.4,00.0,38.9,32.0,15.1,0000.0,0006.57,0002.97,0002.20
2022-09-20 15:26:00,,0828.5,4.99,0.00,30.2,27.6,00.0,38.8,31.9,15.0,0000.0,0006.47,0002.94,0002.20
2022-09-20 15:27:00,,0828.5,5.00,0.00,30.1,28.0,00.0,38.8,31.9,15.6,0000.0,0006.63,0002.98,0002.20
2022-09-20 15:28:00,,0828.5,5.01,0.00,30.1,28.2,00.0,38.8,31.9,15.5,0000.0,0006.39,0003.01,0002.21
2022-09-20 15:29:00,,0828.5,5.00,0.00,30.1,28.4,00.0,38.8,31.9,15.3,0000.0,0005.97,0003.07,0002.22
2022-09-20 15:30:00,,0828.4,5.00,0.00,30.2,28.6,00.0,38.8,32.0,15.4,0000.0,0005.72,0003.07,0002.22
2022-09-20 15:31:00,,0828.5,4.99,0.00,30.2,28.7,00.0,38.8,32.0,15.4,0000.0,0005.58,0003.12,0002.23
2022-09-20 15:32:00,,0828.5,5.00,0.00,30.2,28.8,00.0,38.9,32.0,15.4,0000.0,0007.72,0003.16,0002.27
2022-09-20 15:33:00,,0828.5,5.00,0.00,30.2,28.9,00.0,38.9,32.1,15.4,0000.0,0007.81,0003.17,0002.28
2022-09-20 15:34:00,,0828.7,5.00,0.00,30.2,29.0,00.0,38.9,32.1,15.5,0000.0,0007.84,0003.15,0002.29
2022-09-20 15:35:00,,0828.8,5.00,0.00,30.3,29.0,00.0,38.9,32.2,15.7,0000.0,0007.96,0003.13,0002.29
2022-09-20 15:36:00,,0828.9,5.00,0.00,30.3,28.0,00.0,38.9,32.1,15.6,0000.0,0008.39,0003.14,0002.30
2022-09-20 15:37:00,,0829.0,5.00,0.00,30.3,27.1,00.0,38.9,32.0,15.7,0000.0,0008.64,0003.17,0002.31
2022-09-20 15:38:00,,0829.0,5.00,0.00,30.2,27.2,00.0,38.8,32.0,15.8,0000.0,0008.65,0003.17,0002.32
2022-09-20 15:39:00,,0829.1,4.98,0.00,30.2,27.3,00.0,38.8,31.9,15.9,0000.0,0008.66,0003.18,0002.32
2022-09-20 15:40:00,,0829.0,5.00,0.00,30.1,27.7,00.0,38.8,31.9,15.8,0000.0,0008.71,0003.19,0002.34
2022-09-20 15:41:00,,0828.8,5.01,0.00,30.1,28.0,00.0,38.8,31.9,15.8,0000.0,0008.55,0003.17,0002.34
2022-09-20 15:42:00,,0828.8,5.00,0.00,30.1,28.2,00.0,38.8,31.9,16.0,0000.0,0008.47,0003.18,0002.34
2022-09-20 15:43:00,,0828.8,5.00,0.00,30.1,28.4,00.0,38.8,31.9,16.1,0000.0,0008.37,0003.16,0002.32
2022-09-20 15:44:00,,0828.9,4.99,0.00,30.1,28.6,00.0,38.8,31.9,16.3,0000.0,0007.85,0003.12,0002.30
2022-09-20 15:45:00,,0828.8,5.01,0.00,30.2,28.7,00.0,38.8,32.0,16.2,0000.0,0007.86,0003.09,0002.31
2022-09-20 15:46:00,,0829.1,5.00,0.00,30.2,28.9,00.0,38.8,32.0,15.9,0000.0,0007.74,0003.12,0002.35
2022-09-20 15:47:00,,0828.7,4.99,0.00,30.2,28.9,00.0,38.8,32.1,16.0,0000.0,0007.58,0003.13,0002.36
2022-09-20 15:48:00,,0828.8,5.02,0.00,30.2,28.2,00.0,38.8,32.1,15.5,0000.0,0007.05,0003.13,0002.37
2022-09-20 15:49:00,,0829.0,5.00,0.00,30.2,27.1,00.0,38.8,32.0,15.7,0000.0,0006.74,0003.13,0002.39
2022-09-20 15:50:00,,0829.1,5.01,0.00,30.2,27.0,00.0,38.8,32.0,15.9,0000.0,0006.84,0003.15,0002.41
2022-09-20 15:51:00,,0829.1,5.00,0.00,30.1,27.2,00.0,38.7,31.9,16.1,0000.0,0008.45,0003.16,0002.43
2022-09-20 15:52:00,,0829.0,4.99,0.00,30.0,27.5,00.0,38.7,31.8,16.5,0000.0,0008.88,0003.23,0002.46
2022-09-20 15:53:00,,0829.0,5.00,0.00,30.0,27.8,00.0,38.7,31.7,15.6,0000.0,0009.20,0003.25,0002.49
2022-09-20 15:54:00,,0829.1,5.02,0.00,30.0,28.1,00.0,38.7,31.8,15.5,0000.0,0008.80,0003.25,0002.51
2022-09-20 15:55:00,,0829.1,4.99,0.00,30.0,28.3,00.0,38.7,31.8,15.5,0000.0,0008.41,0003.28,0002.53
2022-09-20 15:56:00,,0829.1,5.00,0.00,30.0,28.5,00.0,38.7,31.9,15.2,0000.0,0009.02,0003.31,0002.53
2022-09-20 15:57:00,,0829.1,5.00,0.00,30.1,28.6,00.0,38.7,31.9,14.7,0000.0,0009.25,0003.29,0002.51
2022-09-20 15:58:00,,0829.1,5.00,0.00,30.1,28.8,00.0,38.7,32.0,14.8,0000.0,0009.42,0003.27,0002.50
2022-09-20 15:59:00,,0829.1,5.01,0.00,30.1,28.9,00.0,38.8,32.0,15.1,0000.0,0009.66,0003.24,0002.49
